Miscellaneous Local Product
Issued by NWS North Platte, NE

Home | Current Version | Previous Version | Text Only | Print | Product List | Glossary On
Versions: 1 2 3 4 5 6 7 8 9 10 11 12 13 14 15 16 17 18 19 20 21 22 23 24 25 26 27 28 29 30 31 32 33 34 35 36 37 38 39 40 41 42 43 44 45 46 47 48 49 50
868
AXUS43 KLBF 210710
MISLBF


WESTERN AND NORTH CENTRAL NEBRASKA HOURLY WEATHER ROUNDUP
NATIONAL WEATHER SERVICE NORTH PLATTE NE
100 AM CST TUE NOV 21 2017

NOTE: "FAIR" INDICATES FEW OR NO CLOUDS BELOW 12,000 FEET WITH NO
SIGNIFICANT WEATHER AND/OR OBSTRUCTIONS TO VISIBILITY.

NOTE: STATIONS NOT REPORTING VARIABLES SUCH AS SKY/WEATHER OR
PRESSURE ARE PROVIDED BY RAWS AND APRS NETWORKS AND ARE NOT UNDER
NATIONAL WEATHER SERVICE QUALITY CONTROL.

...OBSERVATIONS IN AND NEAR THE EASTERN PANHANDLE OF NEBRASKA...

CITY           SKY/WX    TMP DP  RH WIND       PRES   REMARKS
PINE RIDGE     CLOUDY    41  25  53 NE15G22   29.85R
GORDON         FAIR      39  26  58 NE13      29.83R WCI  32
CHADRON        PTCLDY    39  25  57 NE14      29.85R WCI  31
ALLIANCE       MOCLDY    47  27  45 N9        29.80R
SIDNEY         CLOUDY    48  16  27 W12       29.84R
$$

...OBSERVATIONS IN NORTHERN NEBRASKA AND FAR SOUTHERN SOUTH DAKOTA...

CITY           SKY/WX    TMP DP  RH WIND       PRES   REMARKS
WINNER         MOCLDY    42  25  50 N13       29.86R
VALENTINE      CLOUDY    45  26  47 N13       29.83R
THEDFORD       CLOUDY    34  26  70 W5        29.80R WCI  30
AINSWORTH      CLOUDY    41  25  54 N8        29.80R
O`NEILL        CLOUDY    42  26  53 N9        29.79R
ORD            CLOUDY    33  25  72 NW9       29.76R WCI  25
BROKEN BOW     PTCLDY    36  23  59 S5        29.77S WCI  32
VALENTINE NWR    N/A     38  22  51 CALM        N/A
HALSEY           N/A     38  20  48 CALM        N/A
BUTTE            N/A     41  27  56 N13G20      N/A
CHAMBERS         N/A     35  19  52 W7          N/A  WCI  29
EWING            N/A     44  27  50 N7          N/A
$$

...OBSERVATIONS IN SOUTHWEST NEBRASKA AND FAR NORTHEAST COLORADO...

CITY           SKY/WX    TMP DP  RH WIND       PRES   REMARKS
HOLYOKE        FAIR      54  19  26 W9        29.84R
IMPERIAL       CLOUDY    49  21  33 W7        29.81R
OGALLALA       CLOUDY    50  22  33 W3        29.80R
NORTH PLATTE   MOCLDY    35  27  72 W3        29.80R
MCCOOK         PTCLDY    50  26  39 N18       29.76F
LEXINGTON      PTCLDY    35  27  70 W5        29.78F WCI  31
STAPLETON        N/A     36  25  64 CALM        N/A
GOTHENBURG       N/A     38  22  52 CALM        N/A
CALLAWAY         N/A     33  23  68 CALM        N/A
$$

...OBSERVATIONS IN CENTRAL LINCOLN COUNTY AREA...

CITY           SKY/WX    TMP DP  RH WIND       PRES   REMARKS
N.P. AIRPORT   MOCLDY    35  27  72 W3        29.80R
N.P. DOWNTOWN    N/A     38  27  65 CALM        N/A
N.P. SOUTHEAST   N/A     40  27  59 CALM        N/A
N.P. HILLCREST   N/A     42  26  52 CALM        N/A
$$

...SOME OBSERVATIONS FROM AROUND THE REGION...

CITY           SKY/WX    TMP DP  RH WIND       PRES   REMARKS
DENVER         CLOUDY    53  11  18 SW13      29.91S
LIMON          CLOUDY    37  15  40 W5        29.92S WCI  33
ASPEN          CLOUDY    33  22  63 CALM      30.20R
LARAMIE        CLOUDY    38  25  59 W25G32    29.98R WCI  27
CASPER         CLOUDY    39  26  59 SW17      29.93R WCI  30
CHEYENNE       CLOUDY    46  22  38 W33G43    29.91R
SCOTTSBLUFF    CLOUDY    53  24  32 W18G29    29.82R
GRAND ISLAND   CLOUDY    34  26  72 W9        29.76R WCI  27
OMAHA          CLOUDY    38  28  67 CALM      29.72R
SIOUX FALLS    CLOUDY    40  20  44 NW13      29.78R WCI  32
PIERRE         FLURRIES  37  24  59 NW18      29.86R WCI  27
RAPID CITY     LGT SNOW  31  28  89 N26       29.91R FOG     WCI  17
BISMARCK       PTCLDY    20   6  55 NW21G36   29.96R WCI   4
KANSAS CITY    PTCLDY    49  31  49 SW10      29.74S
HILL CITY      PTCLDY    51  25  36 NW8       29.78R
WICHITA        CLOUDY    41  31  67 S8        29.79S
DODGE CITY     CLOUDY    48  20  32 NW10      29.77F
OKLAHOMA CITY  CLOUDY    43  31  62 S10       29.81F
DALLAS         CLOUDY    53  37  54 S9        29.88F
AMARILLO       CLOUDY    43  18  36 N9        29.81S
$$




USA.gov is the U.S. government's official web portal to all federal, state and local government web resources and services.